Temp
10 11 11 11 11 11 11 11 10 9 9 9 9 9 8 7 7 6 5 4 4 3
10 11 11 10 10 11 11 9 8 9 9 9 9 8 7 7 6 5 4 3 3 2
11 10 10 10 9 10 9 9 9 9 9 8 8 7 6 5 5 4 3 2 2 1
10 10 10 9 9 9 9 9 8 9 8 8 7 7 6 5 4 3 3 2 1 1
10 10 9 7 8 8 9 8 8 8 8 7 6 6 5 4 3 2 2 1 0 -0
9 8 7 7 7 7 8 7 7 7 7 6 5 5 4 3 2 1 1 0 -1 -1
7 6 7 6 7 7 7 7 7 6 6 5 4 4 3 2 2 1 0 -0 -1 -2
6 6 5 6 6 6 7 6 6 6 5 4 4 3 2 1 1 0 -0 -1 -2 -3
4 5 5 5 5 6 6 6 5 5 4 3 3 2 1 1 0 -0 -1 -1 -3 -4
3 3 4 5 5 6 5 5 4 4 3 2 2 1 0 -0 -1 -1 -1 -3 -5 -5
2 2 4 5 4 5 4 4 4 3 2 2 1 0 -0 -1 -1 -2 -3 -5 -6 -7
2 4 4 4 4 4 4 3 2 2 1 0 -1 -1 -1 -1 -3 -4 -4 -6 -7 -7
3 4 4 4 4 3 2 2 2 0 -0 -1 -1 -2 -4 -4 -4 -5 -6 -6 -7 -8
3 3 3 2 2 2 2 1 0 -1 -1 -2 -4 -4 -5 -5 -6 -7 -8 -8 -8 -8
Height
1438 1444 1450 1456 1461 1467 1473 1477 1481 1485 1490 1494 1495 1497 1497 1498 1498 1498 1497 1497 1496 1495
1436 1439 1446 1451 1458 1464 1470 1474 1479 1483 1487 1490 1492 1494 1495 1495 1495 1494 1493 1493 1492 1490
1431 1436 1443 1449 1454 1461 1466 1472 1476 1480 1484 1486 1489 1491 1492 1492 1491 1491 1489 1488 1487 1486
1427 1435 1441 1447 1452 1458 1464 1469 1474 1478 1482 1484 1486 1487 1488 1488 1487 1486 1485 1484 1483 1482
1428 1433 1438 1443 1450 1456 1462 1467 1472 1476 1479 1481 1483 1484 1484 1484 1483 1482 1481 1479 1478 1477
1425 1430 1435 1442 1448 1455 1460 1466 1470 1474 1477 1479 1480 1481 1481 1481 1480 1479 1477 1475 1473 1472
1423 1429 1434 1441 1447 1452 1460 1465 1468 1472 1474 1476 1478 1478 1478 1477 1475 1474 1472 1470 1468 1466
1422 1427 1434 1440 1446 1453 1459 1463 1467 1470 1472 1474 1475 1475 1474 1472 1471 1469 1467 1465 1463 1461
1419 1427 1433 1439 1447 1453 1458 1462 1465 1467 1469 1470 1472 1472 1470 1468 1467 1464 1462 1460 1458 1456
1424 1430 1434 1441 1448 1453 1457 1461 1463 1465 1467 1466 1468 1468 1466 1464 1462 1459 1457 1454 1452 1451
1420 1434 1439 1444 1450 1453 1456 1458 1461 1462 1463 1463 1464 1463 1461 1459 1457 1454 1452 1450 1449 1447
1433 1433 1442 1447 1451 1453 1455 1457 1458 1459 1460 1461 1460 1458 1456 1455 1452 1449 1447 1446 1444 1443
1435 1440 1445 1450 1452 1453 1454 1455 1456 1457 1458 1457 1457 1455 1452 1449 1446 1444 1442 1441 1439 1437
1439 1444 1448 1449 1450 1452 1452 1453 1455 1455 1455 1454 1452 1451 1448 1446 1443 1441 1439 1437 1434 1433
Wind_Speed
36 34 37 40 43 41 36 34 32 26 22 15 10 7 6 8 10 11 12 12 13 13
34 37 34 40 42 40 36 34 27 26 21 16 10 7 7 9 10 11 13 14 14 15
40 37 32 38 41 39 35 30 29 26 20 15 10 7 8 9 11 12 14 15 16 16
41 33 31 37 39 37 33 29 28 24 18 12 9 8 9 11 13 14 15 15 17 19
34 33 35 39 38 33 30 28 25 20 15 12 9 9 10 11 14 16 16 16 18 20
34 38 40 38 34 30 28 26 22 17 13 9 8 9 11 13 15 15 16 18 20 22
40 40 37 34 32 29 25 22 18 14 10 8 8 11 13 14 15 16 17 19 20 22
40 36 36 34 28 26 23 19 13 10 7 7 10 13 14 15 16 17 19 19 20 21
39 38 35 30 28 24 19 14 10 7 6 9 13 13 14 15 17 18 19 20 19 21
34 33 30 28 23 20 15 10 6 5 7 11 14 14 15 16 18 19 19 18 19 22
25 27 24 22 19 14 10 7 4 5 9 12 13 15 15 17 19 19 18 17 17 18
27 26 21 16 14 11 7 4 3 9 9 10 12 16 18 19 19 19 18 14 15 17
22 19 17 14 11 7 2 4 5 6 8 10 12 14 18 20 21 19 17 16 17 17
20 18 14 10 6 2 2 2 4 5 8 11 13 16 19 21 19 16 18 22 21 21
Wind_Direction
205 220 214 208 200 196 201 203 197 195 197 203 217 239 279 306 320 326 328 326 319 313
199 216 208 203 196 197 202 199 196 196 198 205 218 245 279 301 314 320 322 320 316 311
205 210 207 199 196 199 198 197 194 197 198 207 221 248 279 301 309 315 317 313 311 306
201 198 200 193 195 196 195 197 195 197 200 211 232 259 282 298 307 312 312 309 305 305
190 197 187 186 189 191 192 192 191 192 202 217 239 266 287 301 305 308 308 306 303 302
188 184 181 184 184 186 188 185 185 194 206 224 248 275 291 300 303 303 302 304 303 304
177 178 180 179 181 181 180 181 185 196 216 240 268 286 297 300 302 302 304 303 302 303
175 175 176 175 173 173 176 180 188 203 227 263 284 297 301 304 305 305 305 303 299 298
169 171 169 164 166 169 172 178 190 211 255 282 293 302 303 304 307 308 308 306 303 302
162 162 158 159 163 165 168 182 195 244 278 296 299 303 305 306 310 311 311 313 310 310
149 154 149 156 159 166 171 181 231 273 297 299 295 302 305 309 312 316 317 312 308 308
150 150 155 160 161 158 175 202 294 296 294 295 301 304 308 312 317 319 317 312 297 298
153 151 154 157 159 161 176 289 284 292 296 300 305 312 314 322 324 321 318 315 315 315
148 151 151 149 149 180 255 275 292 303 310 317 320 321 322 318 323 331 334 328 324 318